• In Kazakhstan
  • List of Countries
  • For 7 days
  • Water Temperature
  • Satellite Maps
  • Weather Map
  • News
  • Weather Widgets
  • user-avatar
    Login

    Hourly Weather Sydney

    Today, 25 June, Tuesday

    Time Temperature Precipitation Wind Pressure Humidity
    00:00 +12°C° 0.6 mm 3 mps 773 mmHg 90%
    01:00 +12°C° 0.6 mm 3 mps 772 mmHg 90%
    02:00 +12°C° 0.5 mm 3 mps 773 mmHg 90%
    03:00 +12°C° 0.5 mm 3 mps 773 mmHg 90%
    04:00 +12°C° 0 mm 3 mps 773 mmHg 88%
    05:00 +12°C° 0.2 mm 3 mps 773 mmHg 88%
    06:00 +11°C° 0.2 mm 4 mps 773 mmHg 87%
    07:00 +11°C° 0.2 mm 4 mps 773 mmHg 87%
    08:00 +12°C° 0.2 mm 4 mps 773 mmHg 85%
    09:00 +13°C° 0.2 mm 3 mps 774 mmHg 83%
    10:00 +14°C° 0 mm 3 mps 774 mmHg 81%
    11:00 +16°C° 0.2 mm 3 mps 773 mmHg 77%
    12:00 +17°C° 0.2 mm 3 mps 773 mmHg 73%
    13:00 +18°C° 0.2 mm 4 mps 772 mmHg 68%
    14:00 +18°C° 0.2 mm 4 mps 772 mmHg 70%
    15:00 +17°C° 0.2 mm 4 mps 772 mmHg 72%
    16:00 +17°C° 0 mm 3 mps 773 mmHg 72%
    17:00 +16°C° 0 mm 3 mps 773 mmHg 76%
    18:00 +14°C° 0 mm 4 mps 773 mmHg 80%
    19:00 +13°C° 0 mm 4 mps 774 mmHg 84%
    20:00 +13°C° 0.2 mm 4 mps 774 mmHg 86%
    21:00 +13°C° 0.2 mm 4 mps 774 mmHg 88%
    22:00 +13°C° 0.2 mm 4 mps 774 mmHg 90%
    23:00 +13°C° 0.3 mm 4 mps 774 mmHg 90%

    Tomorrow, 26 June, Wednesday

    Time Temperature Precipitation Wind Pressure Humidity
    00:00 +13°C° 0.3 mm 3 mps 774 mmHg 90%
    01:00 +13°C° 0.3 mm 3 mps 774 mmHg 89%
    02:00 +13°C° 0.2 mm 3 mps 774 mmHg 88%
    03:00 +13°C° 0.2 mm 3 mps 774 mmHg 86%
    04:00 +12°C° 0.2 mm 3 mps 774 mmHg 85%
    05:00 +12°C° 0 mm 3 mps 774 mmHg 84%
    06:00 +12°C° 0 mm 3 mps 775 mmHg 84%
    07:00 +11°C° 0 mm 3 mps 775 mmHg 84%
    08:00 +13°C° 0 mm 3 mps 775 mmHg 78%
    09:00 +15°C° 0 mm 2 mps 775 mmHg 73%
    10:00 +16°C° 0 mm 2 mps 776 mmHg 68%
    11:00 +17°C° 0 mm 2 mps 775 mmHg 62%
    12:00 +18°C° 0 mm 3 mps 775 mmHg 56%
    13:00 +18°C° 0 mm 3 mps 774 mmHg 50%
    14:00 +18°C° 0.1 mm 4 mps 774 mmHg 57%
    15:00 +17°C° 0.1 mm 4 mps 774 mmHg 64%
    16:00 +17°C° 0.1 mm 4 mps 774 mmHg 71%
    17:00 +15°C° 0.2 mm 4 mps 774 mmHg 75%
    18:00 +14°C° 0.2 mm 4 mps 775 mmHg 78%
    19:00 +13°C° 0.2 mm 4 mps 775 mmHg 82%
    20:00 +13°C° 0.2 mm 3 mps 775 mmHg 81%
    21:00 +13°C° 0.2 mm 3 mps 775 mmHg 81%
    22:00 +13°C° 0.2 mm 3 mps 775 mmHg 80%
    23:00 +12°C° 0.1 mm 3 mps 775 mmHg 81%

    Day after tomorrow, 27 June, Thursday

    Time Temperature Precipitation Wind Pressure Humidity
    00:00 +12°C° 0.1 mm 3 mps 775 mmHg 82%
    01:00 +12°C° 0.1 mm 3 mps 775 mmHg 82%
    02:00 +12°C° 0.1 mm 3 mps 775 mmHg 82%
    03:00 +12°C° 0.1 mm 3 mps 775 mmHg 81%
    04:00 +13°C° 0.1 mm 2 mps 775 mmHg 81%
    05:00 +12°C° 0.2 mm 3 mps 775 mmHg 82%
    06:00 +12°C° 0.2 mm 3 mps 775 mmHg 82%
    07:00 +12°C° 0.2 mm 3 mps 775 mmHg 83%
    08:00 +14°C° 0.1 mm 2 mps 775 mmHg 80%
    09:00 +15°C° 0.1 mm 2 mps 775 mmHg 77%
    10:00 +16°C° 0.1 mm 2 mps 775 mmHg 74%
    11:00 +17°C° 0 mm 3 mps 775 mmHg 69%
    12:00 +18°C° 0 mm 3 mps 774 mmHg 64%
    13:00 +19°C° 0 mm 3 mps 774 mmHg 59%
    14:00 +18°C° 0 mm 3 mps 774 mmHg 62%
    15:00 +18°C° 0 mm 3 mps 773 mmHg 66%
    16:00 +17°C° 0 mm 3 mps 773 mmHg 69%
    17:00 +16°C° 0 mm 2 mps 773 mmHg 75%
    18:00 +15°C° 0 mm 2 mps 774 mmHg 80%
    19:00 +14°C° 0 mm 1 mps 774 mmHg 86%
    20:00 +13°C° 0 mm 1 mps 774 mmHg 87%
    21:00 +13°C° 0 mm 1 mps 774 mmHg 88%
    22:00 +13°C° 0 mm 1 mps 774 mmHg 89%
    23:00 +12°C° 0.1 mm 2 mps 774 mmHg 88%

    28 June, Friday

    Time Temperature Precipitation Wind Pressure Humidity
    00:00 +12°C° 0.1 mm 2 mps 774 mmHg 88%
    01:00 +12°C° 0.1 mm 2 mps 774 mmHg 87%
    02:00 +12°C° 0 mm 2 mps 774 mmHg 88%
    03:00 +10°C° 0 mm 2 mps 774 mmHg 90%
    04:00 +10°C° 0 mm 2 mps 774 mmHg 91%
    05:00 +10°C° 0 mm 2 mps 774 mmHg 91%
    06:00 +9°C° 0 mm 2 mps 774 mmHg 91%
    07:00 +9°C° 0 mm 2 mps 774 mmHg 91%
    08:00 +12°C° 0 mm 2 mps 774 mmHg 84%
    09:00 +14°C° 0 mm 1 mps 774 mmHg 77%
    10:00 +16°C° 0 mm 1 mps 774 mmHg 70%
    11:00 +18°C° 0 mm 1 mps 773 mmHg 67%
    12:00 +19°C° 0 mm 1 mps 772 mmHg 64%
    13:00 +20°C° 0 mm 1 mps 772 mmHg 61%
    14:00 +19°C° 0 mm 2 mps 771 mmHg 63%
    15:00 +18°C° 0 mm 3 mps 771 mmHg 65%
    16:00 +18°C° 0 mm 4 mps 770 mmHg 66%
    17:00 +17°C° 0 mm 4 mps 770 mmHg 72%
    18:00 +15°C° 0 mm 4 mps 771 mmHg 77%
    19:00 +14°C° 0 mm 4 mps 771 mmHg 83%
    20:00 +13°C° 0 mm 4 mps 771 mmHg 84%
    21:00 +13°C° 0 mm 4 mps 771 mmHg 85%
    22:00 +12°C° 0 mm 3 mps 771 mmHg 86%
    23:00 +12°C° 0 mm 3 mps 771 mmHg 87%

    29 June, Saturday

    Time Temperature Precipitation Wind Pressure Humidity
    00:00 +11°C° 0 mm 3 mps 771 mmHg 88%
    01:00 +12°C° 0 mm 2 mps 771 mmHg 89%
    02:00 +10°C° 0 mm 2 mps 770 mmHg 90%
    03:00 +10°C° 0 mm 2 mps 770 mmHg 91%
    04:00 +10°C° 0 mm 2 mps 769 mmHg 91%
    05:00 +9°C° 0 mm 2 mps 769 mmHg 91%
    06:00 +9°C° 0 mm 2 mps 769 mmHg 91%
    07:00 +9°C° 0 mm 2 mps 769 mmHg 91%
    08:00 +12°C° 0 mm 2 mps 769 mmHg 82%
    09:00 +13°C° 0 mm 3 mps 769 mmHg 73%
    10:00 +14°C° 0 mm 3 mps 768 mmHg 63%
    11:00 +17°C° 0 mm 3 mps 767 mmHg 57%
    12:00 +20°C° 0 mm 4 mps 766 mmHg 50%
    13:00 +22°C° 0 mm 5 mps 766 mmHg 43%
    14:00 +21°C° 0 mm 5 mps 765 mmHg 44%
    15:00 +21°C° 0 mm 6 mps 764 mmHg 45%
    16:00 +21°C° 0 mm 6 mps 764 mmHg 47%
    17:00 +20°C° 0 mm 6 mps 764 mmHg 52%
    18:00 +19°C° 0 mm 6 mps 763 mmHg 57%
    19:00 +16°C° 0 mm 7 mps 763 mmHg 63%
    20:00 +16°C° 0 mm 6 mps 763 mmHg 64%
    21:00 +16°C° 0 mm 6 mps 762 mmHg 66%
    22:00 +15°C° 0 mm 6 mps 762 mmHg 68%
    23:00 +15°C° 0 mm 7 mps 762 mmHg 68%

    30 June, Sunday

    Time Temperature Precipitation Wind Pressure Humidity
    00:00 +15°C° 0 mm 7 mps 762 mmHg 69%
    01:00 +15°C° 0 mm 8 mps 762 mmHg 69%
    02:00 +13°C° 0.4 mm 8 mps 762 mmHg 69%
    03:00 +12°C° 0.4 mm 7 mps 762 mmHg 69%
    04:00 +10°C° 0.4 mm 7 mps 763 mmHg 69%
    05:00 +10°C° 0.1 mm 6 mps 763 mmHg 71%
    06:00 +9°C° 0.1 mm 5 mps 764 mmHg 73%
    07:00 +8°C° 0.1 mm 4 mps 765 mmHg 75%
    08:00 +11°C° 0 mm 4 mps 765 mmHg 67%
    09:00 +12°C° 0 mm 3 mps 765 mmHg 59%
    10:00 +13°C° 0 mm 3 mps 766 mmHg 51%
    11:00 +14°C° 0 mm 3 mps 765 mmHg 45%
    12:00 +16°C° 0 mm 2 mps 765 mmHg 39%
    13:00 +19°C° 0 mm 1 mps 764 mmHg 33%
    14:00 +18°C° 0 mm 1 mps 764 mmHg 35%
    15:00 +18°C° 0 mm 1 mps 764 mmHg 37%
    16:00 +18°C° 0 mm 1 mps 764 mmHg 38%
    17:00 +15°C° 0 mm 2 mps 765 mmHg 43%
    18:00 +14°C° 0 mm 2 mps 766 mmHg 48%
    19:00 +11°C° 0 mm 3 mps 766 mmHg 53%
    20:00 +11°C° 0 mm 3 mps 767 mmHg 56%
    21:00 +10°C° 0 mm 3 mps 767 mmHg 58%
    22:00 +9°C° 0 mm 3 mps 767 mmHg 61%
    23:00 +9°C° 0 mm 3 mps 767 mmHg 62%
    Show more